DECAYED

SL-16 DEB, 22544 (Decayed)

Orbit data source: Space-Track

SL-16 DEB, 22544 was space debris in LEO originally from a launch on Fri, 25 Dec 1992 UTC launched from the Tyuratam Missile And Space Complex (TTMTR). Debris objects in space refer to the collection of defunct objects orbiting the Earth. Examples of debris include non-operational satellites, rocket bodies, and fragments generated from explosions, collisions, or faulty payload assembly.

Not visible in the next 10 days
Identifier
22544, 1992-093HE
Orbit
Decayed
Country
Flag of CISCIS
Related business
Manufacturer
Unknown
Mission
Decayed spacecraft
Bus & Motor
Unknown
Mass
Unknown
Launch date (UTC)
1992-12-25 (33 years ago)
Launch vehicle
Unknown
Launch site
Tyuratam Missile And Space Complex (TTMTR)
Object type
Payload
Rocket body
Debris
Shape & HBR
Unknown shape, 1.1 m
Radar Cross Section
Small (<0.1 m²)

Expand to show TLE details & history
Last TLE update: 8 months ago

TLE from 8 months ago
0 SL-16 DEB
1 22544U 92093HE  25057.42005374  .08082783  18411+0  39315-1 0  9996
2 22544  71.1936 221.7893 0022352 318.4905  41.4612 15.91403260647772
Epoch: 2025-02-26T10:04Z
TLE epoch observation values (Epoch: 2025-02-26T10:04:52.643Z)
Latitude
0.00001°
Longitude
-85.93989°
Altitude
289.794 km
Speed
7.74 km/s
True Right ascension
14h 47m 09s
True Declination
0° 00' 00"
Sunlit
Object was in full shadow at epoch
Visualization orbit readout
Latitude
Unknown
Longitude
Unknown
Altitude
Unknown
Speed
Unknown
Apparent Right ascension
Unknown
Apparent Declination
Unknown
Sunlit
N/A
Visualization observer readout
Local Sidereal Time
23:59:11
Azimuth
Unknown
Elevation
Unknown
Doppler factor
Unknown
Orbital elements
Apogee altitude
311.008 km
Perigee altitude
281.172 km
Semi-major axis
6,674.227 km
Eccentricity
0.00224
Inclination
71.1936°
RAAN
221.7893°
Arg. of periapsis
318.4905°
True anomaly
41.63115°
Mean anomaly
41.4612°
Eccentric anomaly
41.54614°
Mean motion
3.98054 °/min
Orbital period
90.44 mins
BSTAR
0.039315
Loading maneuver chart data...
Computing Atmospheric mass density...
Loading historical data...
Loading historical data...
Loading historical data...
Loading historical data...
Loading historical data...
Loading historical data...
Loading historical data...

Documentation

Showing up to 5 results
|